Total_Precipitation_Accumulation
0.05 0.11 0.13 0.12 0.15 0.19 0.18 0.28 0.38 0.40 0.36 0.40 0.54 0.74 0.97 1.05 1.27 1.55 1.65 1.74 1.90 2.03 2.34 2.78 3.49 4.54 5.09 5.75 5.62 5.18 4.89 4.69 4.66 4.64 4.63 4.59 4.65 4.78 4.88 4.77 4.55 4.51 4.40 4.54
0.08 0.10 0.09 0.08 0.11 0.13 0.16 0.24 0.32 0.41 0.46 0.49 0.68 0.86 1.13 1.26 1.39 1.52 1.57 1.72 1.77 1.94 2.53 3.19 3.76 4.36 4.80 4.95 5.08 5.30 5.27 5.20 4.95 4.94 5.20 5.55 5.76 5.62 5.63 5.57 5.54 5.34 5.15 5.15
0.10 0.08 0.05 0.06 0.10 0.09 0.14 0.22 0.28 0.40 0.53 0.67 0.93 1.27 1.37 1.40 1.58 1.59 1.59 1.66 1.73 1.88 2.24 2.93 3.48 3.92 4.46 4.83 4.89 5.17 5.23 5.39 5.67 5.87 5.95 6.25 6.51 6.32 6.10 5.74 5.58 5.33 5.03 4.98
0.05 0.04 0.05 0.08 0.10 0.10 0.14 0.15 0.22 0.32 0.52 0.81 1.02 1.59 1.70 1.62 1.72 1.74 1.80 1.83 1.86 2.00 2.15 2.50 2.97 3.29 3.71 4.06 4.38 4.79 4.98 5.17 5.74 6.49 6.73 6.74 6.81 6.64 6.28 5.95 5.64 5.32 4.96 4.66
0.06 0.05 0.07 0.09 0.08 0.08 0.09 0.11 0.18 0.28 0.45 0.81 0.97 1.35 1.93 1.89 1.90 1.84 1.87 1.91 1.93 1.94 2.05 2.23 2.36 2.75 3.29 3.55 3.81 4.33 4.76 5.21 5.85 6.38 6.73 6.94 6.82 6.55 6.23 5.77 5.43 5.13 4.74 4.33
0.06 0.06 0.07 0.09 0.09 0.07 0.09 0.15 0.25 0.34 0.58 1.04 0.89 1.12 1.94 2.10 2.00 1.84 1.82 1.92 1.92 1.85 1.90 2.02 2.23 2.47 2.80 3.13 3.43 3.79 4.37 5.04 5.47 5.83 6.16 6.33 6.41 6.29 5.96 5.48 5.15 4.82 4.47 4.11
0.10 0.10 0.08 0.08 0.10 0.11 0.17 0.42 0.84 1.03 1.18 1.16 0.78 1.16 1.97 2.13 2.08 2.00 2.00 2.21 2.07 1.74 1.79 2.08 2.25 2.46 2.70 3.00 3.37 3.74 4.15 4.70 5.00 5.08 5.24 5.53 5.71 5.71 5.56 5.33 4.99 4.56 4.08 3.61
0.22 0.20 0.12 0.09 0.12 0.15 0.19 0.42 0.94 1.22 1.25 1.19 1.11 1.74 2.20 2.11 2.07 2.10 2.07 2.12 2.03 1.89 2.02 2.14 2.20 2.38 2.70 2.91 3.09 3.48 3.71 4.22 4.50 4.38 4.47 4.77 5.01 4.95 4.81 4.58 4.11 3.68 3.34 3.06
0.28 0.26 0.12 0.11 0.12 0.13 0.20 0.31 0.43 0.74 0.89 1.24 1.71 2.25 2.59 2.51 2.40 2.28 2.15 1.95 1.92 1.91 2.09 2.18 2.10 2.20 2.43 2.69 2.88 3.06 3.23 3.59 3.85 3.83 3.87 3.90 3.91 3.91 3.83 3.60 3.24 2.88 2.65 2.42
0.20 0.25 0.15 0.13 0.15 0.18 0.21 0.27 0.43 0.83 1.19 1.56 1.91 2.58 3.18 2.99 2.68 2.39 2.21 1.92 1.89 1.80 1.85 1.96 2.04 2.14 2.06 2.14 2.44 2.68 2.75 2.91 3.06 3.06 3.06 3.06 3.13 3.18 3.09 2.81 2.45 2.30 2.24 2.11
0.19 0.29 0.24 0.22 0.26 0.29 0.32 0.36 0.44 0.68 0.86 1.36 1.95 2.58 2.68 2.77 2.55 2.30 2.09 1.87 1.73 1.65 1.73 1.86 1.98 2.04 1.91 1.83 1.93 2.16 2.38 2.49 2.62 2.71 2.75 2.64 2.60 2.51 2.44 2.29 2.05 2.01 2.00 1.89
0.26 0.37 0.43 0.35 0.29 0.27 0.32 0.37 0.47 0.83 0.89 1.04 1.64 2.47 2.36 2.62 2.64 2.51 2.27 2.04 1.98 1.88 1.89 1.94 2.11 2.06 1.95 1.98 1.97 1.96 2.07 2.19 2.30 2.37 2.48 2.51 2.42 2.20 2.10 2.01 1.90 1.79 1.72 1.68
0.34 0.54 0.80 0.87 0.69 0.45 0.40 0.41 0.46 0.54 0.76 1.08 1.73 2.63 2.49 2.48 2.52 2.45 2.26 2.22 2.20 2.18 2.22 2.19 2.23 2.16 2.06 2.04 1.92 1.78 1.83 1.95 2.04 2.15 2.19 2.15 2.09 1.96 1.85 1.84 1.84 1.71 1.61 1.53
0.38 0.59 0.92 1.31 1.13 0.74 0.60 0.51 0.52 0.62 0.97 1.21 1.61 2.16 2.46 2.39 2.46 2.55 2.48 2.28 2.28 2.37 2.39 2.34 2.32 2.30 2.21 2.11 1.93 1.79 1.75 1.72 1.68 1.79 1.91 1.91 1.89 1.85 1.76 1.66 1.64 1.61 1.56 1.49
0.48 0.67 0.64 0.64 0.62 0.62 0.60 0.57 0.57 0.66 0.78 1.22 1.60 2.05 2.42 2.32 2.46 2.73 2.72 2.55 2.42 2.47 2.48 2.43 2.49 2.43 2.39 2.35 2.20 2.06 1.90 1.76 1.68 1.65 1.62 1.70 1.82 1.83 1.77 1.70 1.66 1.61 1.53 1.41
0.54 0.68 0.68 0.62 0.55 0.59 0.65 0.68 0.63 0.65 0.82 1.19 1.60 2.12 2.23 2.23 2.33 2.47 2.61 2.55 2.44 2.45 2.51 2.57 2.71 2.67 2.62 2.57 2.39 2.23 2.06 1.80 1.65 1.62 1.59 1.63 1.70 1.70 1.65 1.62 1.58 1.53 1.48 1.48
0.57 0.74 0.89 0.80 0.58 0.84 1.21 1.04 0.90 0.89 1.00 1.30 1.73 1.96 1.91 2.04 2.30 2.43 2.50 2.60 2.59 2.68 2.81 2.85 2.78 2.77 2.72 2.65 2.65 2.64 2.36 2.04 1.89 1.76 1.64 1.62 1.59 1.55 1.52 1.41 1.39 1.46 1.48 1.47
0.61 0.80 0.94 1.00 1.09 1.67 1.54 1.04 0.96 1.11 1.28 1.37 1.49 1.55 1.76 2.01 2.21 2.36 2.54 2.74 2.77 2.75 2.69 2.75 2.69 2.70 2.68 2.60 2.58 2.57 2.47 2.22 1.92 1.78 1.64 1.53 1.53 1.49 1.50 1.47 1.45 1.49 1.51 1.44
0.43 0.74 1.06 1.25 1.59 1.70 1.56 1.12 1.12 1.35 1.73 1.55 1.58 1.58 1.72 1.88 2.09 2.47 2.52 2.59 2.80 2.66 2.53 2.60 2.69 2.73 2.72 2.63 2.45 2.37 2.27 2.17 2.03 1.80 1.57 1.44 1.45 1.43 1.42 1.44 1.44 1.48 1.50 1.42
0.48 0.68 1.18 1.49 1.87 2.08 1.84 1.08 0.94 1.40 2.45 1.85 1.72 1.76 1.77 1.94 2.48 2.61 2.32 2.23 2.33 2.40 2.50 2.61 2.72 2.78 2.77 2.71 2.40 2.25 2.14 1.99 1.82 1.58 1.43 1.37 1.39 1.33 1.30 1.36 1.41 1.44 1.47 1.43
0.99 1.07 1.31 1.65 2.11 2.20 1.37 0.88 1.02 2.04 2.54 1.94 1.82 1.81 1.88 2.13 2.30 2.09 1.91 1.98 2.13 2.31 2.45 2.54 2.58 2.61 2.57 2.55 2.33 2.21 2.01 1.85 1.55 1.32 1.27 1.31 1.31 1.26 1.21 1.25 1.31 1.38 1.36 1.39
1.34 1.55 1.66 1.84 2.30 2.43 1.21 1.01 1.45 1.82 1.51 1.45 1.47 1.47 1.53 1.65 1.71 1.75 1.78 1.86 1.94 2.09 2.28 2.36 2.41 2.40 2.30 2.22 2.14 2.03 1.85 1.58 1.38 1.26 1.21 1.28 1.35 1.18 1.09 1.18 1.17 1.21 1.37 1.34
1.34 1.53 1.78 2.05 2.41 2.00 1.31 1.27 1.28 1.31 1.32 1.26 1.30 1.28 1.31 1.39 1.45 1.58 1.77 1.86 1.88 1.86 2.04 2.09 2.00 1.89 1.91 1.86 1.82 1.75 1.57 1.37 1.28 1.30 1.35 1.34 1.31 1.24 1.23 1.25 1.20 1.22 1.31 1.32
1.43 1.22 1.53 1.81 1.90 1.58 1.27 1.18 1.18 1.08 1.05 1.07 1.20 1.20 1.15 1.14 1.10 1.23 1.40 1.58 1.69 1.68 1.67 1.75 1.73 1.65 1.62 1.56 1.48 1.42 1.29 1.26 1.27 1.32 1.41 1.49 1.36 1.22 1.23 1.29 1.18 1.18 1.18 1.19
1.51 1.45 1.70 1.92 1.87 1.63 1.43 1.23 1.13 1.10 1.07 1.10 1.14 1.07 0.98 0.92 0.91 0.96 1.12 1.24 1.36 1.47 1.41 1.42 1.53 1.55 1.43 1.32 1.28 1.22 1.13 1.15 1.30 1.35 1.32 1.37 1.31 1.25 1.25 1.24 1.11 1.05 1.01 1.05
1.39 1.59 1.94 2.16 1.82 1.72 1.58 1.24 1.04 1.06 1.07 1.02 0.97 0.92 0.90 0.85 0.83 0.86 1.03 1.15 1.22 1.28 1.31 1.35 1.39 1.37 1.29 1.21 1.14 1.08 1.01 1.05 1.23 1.31 1.27 1.20 1.17 1.19 1.15 1.19 1.17 1.11 1.04 1.00